Jacksonville NAS, FL

6:35 PM EDT on May 26, 2018 (GMT -0400)
Jacksonville Naval Air Station

Weather History for KNIP - January, 2014

Change the Weather History Date:

Monday, January 6, 2014

  Actual Average Record
Temperature  
Mean Temperature 54 °F -  
Max Temperature 68 °F 63 °F 73 °F (2015)
Min Temperature 37 °F 44 °F 36 °F (2018)
Degree Days  
Heating Degree Days 12    
Growing Degree Days 4 (Base 50)    
Moisture  
Dew Point 45 °F    
Average Humidity 69    
Maximum Humidity 90    
Minimum Humidity 33    
Precipitation  
Precipitation 0.04 in - - ()
Sea Level Pressure  
Sea Level Pressure 30.04 in    
Wind  
Wind Speed 11 mph (West)    
Max Wind Speed 20 mph    
Max Gust Speed 28 mph    
Visibility 9 miles    
Events Rain    
Averages and records for this station are not official NWS values.
T = Trace of Precipitation, MM = Missing Value Source: NWS Daily Summary

Daily Weather History Graph

Daily Weather History Graph

Search for Another Location

Airport or City:

Astronomy

Jan. 06, 2014 Rise Set
Actual Time 7:24 AM EST 5:41 PM EST
Civil Twilight 6:57 AM EST 6:07 PM EST
Nautical Twilight 6:28 AM EST 6:37 PM EST
Astronomical Twilight 5:58 AM EST 7:06 PM EST
Moon 11:05 AM EST (1/6) 11:44 PM EST (1/6)
Length of Visible Light 11h 09m
Length of Day
10h 17m
Waxing Crescent, 34% of the Moon is Illuminated
Jan 6
Waxing Crescent
Jan 7
First Quarter
Jan 15
Full
Jan 24
Last Quarter
Jan 30
New

Hourly Weather History & Observations

Time (EST) Temp. Windchill Dew Point Humidity Pressure Visibility Wind Dir Wind Speed Gust Speed Precip Events Conditions
12:53 AM 64.9 °F - 62.1 °F 90% 29.92 in 10.0 mi South 6.9 mph - N/A   Mostly Cloudy
1:53 AM 64.0 °F - 60.1 °F 87% 29.91 in 10.0 mi South 6.9 mph - N/A   Partly Cloudy
2:53 AM 66.0 °F - 60.1 °F 81% 29.91 in 10.0 mi SSW 8.1 mph - N/A   Partly Cloudy
3:53 AM 66.0 °F - 60.1 °F 81% 29.90 in 10.0 mi SSW 9.2 mph - N/A   Mostly Cloudy
4:53 AM 66.0 °F - 61.0 °F 84% 29.88 in 10.0 mi SW 11.5 mph - N/A   Mostly Cloudy
5:16 AM 66.0 °F - 61.0 °F 84% 29.90 in 10.0 mi SW 11.5 mph - N/A   Overcast
5:53 AM 66.9 °F - 62.1 °F 84% 29.89 in 10.0 mi WSW 13.8 mph - N/A   Mostly Cloudy
6:53 AM 66.0 °F - 62.1 °F 87% 29.89 in 10.0 mi SW 12.7 mph - N/A   Mostly Cloudy
7:08 AM 66.9 °F - 62.1 °F 84% 29.91 in 10.0 mi SW 11.5 mph - N/A   Mostly Cloudy
7:53 AM 66.0 °F - 62.1 °F 87% 29.91 in 10.0 mi SSW 9.2 mph - N/A   Mostly Cloudy
8:34 AM 66.9 °F - 62.1 °F 84% 29.94 in 10.0 mi SSW 12.7 mph - N/A   Mostly Cloudy
8:53 AM 66.9 °F - 62.1 °F 84% 29.93 in 10.0 mi SSW 11.5 mph - N/A   Mostly Cloudy
9:30 AM 68.0 °F - 63.0 °F 84% 29.96 in 3.0 mi West 11.5 mph - 0.00 in Rain Rain
9:38 AM 64.9 °F - 61.0 °F 87% 29.98 in 3.0 mi NW 18.4 mph - 0.03 in Rain Heavy Rain
9:48 AM 60.8 °F - 55.4 °F 82% 29.99 in 3.0 mi NW 17.3 mph - 0.04 in Rain Light Rain
9:53 AM 57.9 °F - 55.0 °F 90% 29.99 in 7.0 mi NW 17.3 mph 23.0 mph 0.04 in Rain Light Rain
10:08 AM 57.9 °F - 54.0 °F 87% 30.02 in 9.0 mi WNW 11.5 mph 20.7 mph 0.00 in Rain Light Rain
10:25 AM 57.0 °F - 54.0 °F 89% 30.02 in 10.0 mi NW 12.7 mph - 0.00 in   Overcast
10:53 AM 55.0 °F - 48.9 °F 80% 30.03 in 10.0 mi WNW 16.1 mph 24.2 mph 0.00 in   Overcast
11:53 AM 52.0 °F - 45.0 °F 77% 30.05 in 10.0 mi NW 18.4 mph 27.6 mph N/A   Mostly Cloudy
12:53 PM 51.1 °F - 39.9 °F 66% 30.06 in 10.0 mi NW 19.6 mph - N/A   Mostly Cloudy
1:53 PM 50.0 °F - 34.0 °F 54% 30.07 in 10.0 mi WNW 17.3 mph 27.6 mph N/A   Mostly Cloudy
2:53 PM 46.9 °F - 28.0 °F 48% 30.12 in 10.0 mi WNW 16.1 mph 25.3 mph N/A   Overcast
3:53 PM 48.9 °F - 26.1 °F 41% 30.12 in 10.0 mi NW 13.8 mph - N/A   Mostly Cloudy
4:53 PM 48.0 °F - 21.9 °F 36% 30.15 in 10.0 mi NW 19.6 mph 26.5 mph N/A   Mostly Cloudy
5:53 PM 46.0 °F 43.1 °F 25.0 °F 44% 30.18 in 10.0 mi WNW 5.8 mph - N/A   Scattered Clouds
6:53 PM 44.1 °F 38.6 °F 21.9 °F 42% 30.22 in 10.0 mi WNW 10.4 mph - N/A   Scattered Clouds
7:53 PM 43.0 °F 38.2 °F 23.0 °F 45% 30.25 in 10.0 mi WNW 8.1 mph - N/A   Mostly Cloudy
8:53 PM 43.0 °F 36.8 °F 21.0 °F 42% 30.28 in 10.0 mi NW 11.5 mph - N/A   Mostly Cloudy
9:53 PM 42.1 °F 34.9 °F 16.0 °F 35% 30.32 in 10.0 mi NW 13.8 mph 27.6 mph N/A   Mostly Cloudy
10:53 PM 39.0 °F 29.9 °F 12.0 °F 33% 30.35 in 10.0 mi NW 17.3 mph 25.3 mph N/A   Mostly Cloudy
11:53 PM 37.9 °F 29.2 °F 10.9 °F 33% 30.37 in 10.0 mi NW 15.0 mph 21.9 mph N/A   Mostly Cloudy